Location: Aultman
(40.9284°N, 81.4173°W)
Time: 15:13:48
(UTC+00:00)

Cosmos 1844 - Pass Details

Date: 24 January 2021
Orbit: 821 x 869 km, 70.9° (Epoch: 01 March)

Event Time Altitude Azimuth Distance (km) Brightness Sun altitude
Rises 23:36:35 0° 213° (SSW) 3,372 7.6 -12.0°
Reaches altitude 10° 23:39:02 10° 217° (SW) 2,448 6.9 -12.5°
Maximum altitude 23:44:35 60° 297° (WNW) 970 4.3 -13.5°
Drops below altitude 10° 23:50:15 10° 17° (NNE) 2,496 5.9 -14.5°
Enters shadow 23:52:27 - 21° (NNE) 3,323 6.5 -15.0°
